Regional Weather Roundup
Issued by NWS Pendleton, OR

Home | Current Version | Previous Version | Text Only | Print | Product List | Glossary On
Versions: 1 2 3 4 5 6 7 8 9 10 11 12 13 14 15 16 17 18 19 20 21 22 23 24 25 26 27 28 29 30 31 32 33 34 35 36 37 38 39 40 41 42 43 44 45 46 47 48 49 50
000
ASUS46 KPDT 021010
RWRPDT
PENDLETON REGIONAL WEATHER ROUNDUP
NATIONAL WEATHER SERVICE PENDLETON OREGON
300 AM PDT THU APR 2 2015

NOTE: FAIR INDICATES FEW OR NO CLOUDS BELOW 12,000 FEET WITH NO
SIGNIFICANT WEATHER AND/OR OBSTRUCTIONS TO VISIBILITY.

# INDICATES UNOFFICIAL STATION AND DATA

WAZ520-021110-
EAST SLOPES OF WASHINGTON CASCADES

CITY            SKY/WX      TMP DP  RH  WIND    PRES   REMARKS
#BUMPING DAM    N/A         31  N/A N/A W9      N/A
#CLE ELUM HS    N/A         34  29  82  W2      30.19S
#CLE ELUM LAKE  N/A         31  28  88  CALM    30.28R
#CLIFFDEL 2NW   N/A         33  27  78  N1      N/A
#EASTON DOT     N/A         35  27  72  N1      N/A
#GLENWOOD       N/A         24  23  96  CALM    30.30R
#MANASTASH CYN  N/A         34  23  64  CALM    30.17R
#NELSON         N/A         33  31  92  CALM    30.31R
#NELSON 3SW     N/A         33  28  82  CALM    30.50R
#NILE           N/A         34  28  78  CALM    29.54R
#PEOH POINT     N/A         28  25  88  SW6     N/A
#RONALD 2NW     N/A         33  -6  18  NE2     30.08R
#SNOWDEN        N/A         33  27  78  NW1     N/A
#SOUTH BLEWITT  N/A         27  26  96  CALM    N/A
#TEANAWAY 4NE   N/A         31  28  88  W2      N/A
#TROUT LAKE 1NE N/A         36  31  82  SW2     30.30R
$$

WAZ521-021110-
SIMCOE HIGHLANDS

CITY            SKY/WX      TMP DP  RH  WIND    PRES   REMARKS
#BICKLETON HS   N/A         35  17  47  SW6     N/A
#SATUS PASS DOT N/A         31  22  69  CALM    N/A
#CENTERVILLE 4W N/A         38  34  85  W12     29.99R WCI 30
#CENTERVILLE 1SWN/A         34  30  85  W5      30.27R
#GOLDENDALE     N/A         34  32  92  W3      N/A
#GOLDENDALE 1NE N/A         34  26  72  S3      N/A
#GOLDENDALE 5WNWN/A         34  30  85  W3      30.29R
#GOODNOE HILLS  N/A         38  33  82  W14     N/A    WCI 30
#LYLE 6NE       N/A         38  34  85  SW8     30.29R
$$

WAZ026-021110-
KITTITAS VALLEY

CITY            SKY/WX      TMP DP  RH  WIND    PRES   REMARKS
ELLENSBURG AP   PTCLDY      39  29  67  NW17    30.22S WCI 30
#ELLENSBURG CWU N/A         39  30  70  NW13    30.20R WCI 31
#ELLENSBURG 3NE N/A         37  30  75  NW7     30.22R
#ELLENSBURG 1E  N/A         39  29  67  NW1     N/A
#KITTITAS 4N    N/A         36  29  75  NW8     28.51R
#KITTITAS 3S    N/A         38  30  73  W6      30.24R
#THORP 6N       N/A         35  30  82  NW15G24 30.28S WCI 25
$$

WAZ027-021110-
YAKIMA VALLEY

CITY            SKY/WX      TMP DP  RH  WIND    PRES   REMARKS
SUNNYSIDE AP    CLEAR       32  27  82  CALM    30.25R
YAKIMA AIRPORT  PTCLDY      35  25  66  W7      30.25R
YAKIMA-VAGABOND MOCLDY      43  28  55  N7      30.23S
#DONALD 2NE     N/A         41  24  50  CALM    29.08S
#GRANDVIEW      N/A         37  25  61  CALM    30.27R
#MABTON         N/A         38  28  67  W1      30.25R
#MOXEE 2E       N/A         39  23  52  NW3     30.19R
#NACHES 2SW     N/A         41  31  67  NW9     30.22S
#TERRACE HTS    N/A         40  29  64  N2      30.22R
#TOPPENISH      N/A         41  29  62  W1      30.18R
#WAPATO 4NE     N/A         41  24  50  CALM    29.08S
#WEST VALLEY    N/A         42  29  60  N3      30.23R
#W YAKIMA       N/A         44  30  58  N5      30.26R
#WHITE SWAN 5E  N/A         32  26  78  W2      30.27R
#WILEY CITY 3W  N/A         28  16  60  W1      30.23R
#ZILLAH DOT     N/A         42  28  57  NW6     N/A
$$

WAZ028-021110-
LOWER COLUMBIA BASIN...WASHINGTON

CITY            SKY/WX      TMP DP  RH  WIND    PRES   REMARKS
PASCO           CLEAR       39  32  76  S3      30.25R
PROSSER AWOS    N/A         32  28  85  W2      30.28R
RICHLAND AWOS   CLEAR       39  30  70  CALM    30.25R
#BASIN CITY 5SW N/A         41  31  67  W7      30.23R
#BENTON CITY    N/A         44  29  55  W7      30.16R
#CONNELL 5N     N/A         33  28  82  CALM    30.22S
#CONNELL 5NW    N/A         33  28  82  CALM    30.18R
#ELTOPIA        N/A         37  32  82  CALM    30.21R
#ELTOPIA 6NW    N/A         40  31  70  W9      29.18R
#KAHLOTUS       N/A         35  29  78  W7      30.23R
#KENNEWICK 3S   N/A         38  35  89  S3      30.25R
#PATERSON       N/A         40  35  82  W1      30.26R
#PROSSER DOT    N/A         38  28  67  W6      N/A
#PROSSER        N/A         43  27  53  SW2     30.25R
#SAGEMOOR 2W    N/A         38  31  76  W3      30.09R
#TOUCHET 2S     N/A         42  35  76  SW13    30.23S WCI 35
#WEST PASCO     N/A         38  27  64  CALM    30.30R
$$

WAZ029-021110-
FOOTHILLS OF THE BLUES...WASHINGTON

CITY            SKY/WX      TMP DP  RH  WIND    PRES   REMARKS
WALLA WALLA AP  PTCLDY      40  32  73  S10     30.25R
#CLYDE 6NW      N/A         35  32  89  S9      30.24R
#DAYTON SCHOOL  N/A         40  27  59  SW6     30.22R
#DELANEY DOT    N/A         42  32  67  S15     N/A    WCI 34
#LOWDEN 2SE     N/A         40  34  79  CALM    30.23R
#PLEASANT VIEW 1N/A         33  30  89  S7      30.27S
#PRESCOTT       N/A         38  34  85  CALM    30.24R
#SUDBURY        N/A         40  N/A N/A CALM    N/A
#WHITMAN COLLEGEN/A         40  33  76  SE3     30.31R
#WAITSBURG 5S   N/A         36  32  85  S9      30.35R
#WAITSBURG 8N   N/A         34  21  58  S8      30.06S
#WALLA WALLA 5E N/A         41  33  73  S15     N/A    WCI 33
#WHITMAN MISSIONN/A         43  35  73  SW5     30.28R
$$

WAZ030-021110-
BLUE MOUNTAINS...WASHINGTON

CITY            SKY/WX      TMP DP  RH  WIND    PRES   REMARKS
#DAYTON 8SE     N/A         39  30  70  N5      29.99R
#DIXIE 5SE      N/A         34  28  78  S14     30.12S WCI 25
$$

ORZ009-041-WAZ024-021110-
COLUMBIA RIVER GORGE

CITY            SKY/WX      TMP DP  RH  WIND    PRES   REMARKS
HOOD RIVER AP   LGT DRIZZLE 43  36  76  NW8     30.32S
THE DALLES AP   CLEAR       44  34  68  NW9     30.31R
#ARLINGTON AIRPON/A         39  34  82  W7      30.00S
#CELILO DOT     N/A         46  34  63  SW8     N/A
#LYLE           N/A         46  39  76  W9      30.34R
#MARYHILL       N/A         42  33  70  CALM    N/A
#MOSIER 1S      N/A         42  29  60  W12     30.29R WCI 35
#MURDOCK        N/A         47  39  74  NW16    30.33R WCI 41

$$

ORZ510-021110-
NORTH CENTRAL OREGON

CITY            SKY/WX      TMP DP  RH  WIND    PRES   REMARKS
#CHENOWITH 1W   N/A         38  32  79  W31     N/A    WCI 26
#COW CYN RST AREN/A         32  28  85  W5      N/A
#DUFUR 9E       N/A         36  31  82  W7      30.36R
#GRASS VALLEY 1SN/A         32  29  89  W9      30.32F
#KENT DOT       N/A         30  25  81  SW6     N/A
#MAUPIN SCHOOL  N/A         35  29  78  CALM    30.31R
#MORO SCHOOL    N/A         39  35  85  W10     30.26R
#SHANIKO 5WSW   N/A         30  24  78  S6      N/A
#SHANIKO 4NW    N/A         30  25  81  SW5     30.22R
#TYGH VALLEY 2NEN/A         32  28  85  CALM    30.32S
#WAPANITIA AIRPON/A         35  30  82  W1      30.32S
#WASCO DOT      N/A         39  33  79  W8      N/A
#WASCO 5NE      N/A         37  33  85  W7      30.28S
$$

ORZ511-021110-
CENTRAL OREGON

CITY            SKY/WX      TMP DP  RH  WIND    PRES   REMARKS
BEND AIRPORT    CLEAR       23  19  84  CALM    30.26R
MADRAS AIRPORT  CLEAR       28  25  88  S6      30.30R
PRINEVILLE AP   CLEAR       27  23  85  CALM    30.26R
REDMOND AIRPORT CLEAR       23  20  88  S3      30.27R
#BEND 6E        N/A         24  20  84  CALM    30.33F
#BEND 1SW       N/A         26  23  88  CALM    N/A
#BEND-AWBREY    N/A         30  26  85  S2      30.35R
#BEND-KIM LN    N/A         29  25  85  SW3     30.22S
#CULVER         N/A         29  25  85  CALM    30.24R
#LAKE BILLY CHINN/A         30  26  85  CALM    30.37R
#MADRAS         N/A         28  24  85  SE3     N/A
#POWELL BUTTE 3EN/A         29  25  85  SW1     N/A
#POWELL BUTTE   N/A         31  24  75  W5      29.86R
#PRINEVILLE 3N  N/A         24  20  84  SE1     30.32R
#WARM SPRINGS   N/A         30  25  81  CALM    30.27R

$$


ORZ509-021110-
EAST SLOPES OF OREGON CASCADES

CITY            SKY/WX      TMP DP  RH  WIND    PRES   REMARKS
#BLUE BOX PASS  N/A         29  -19 11  NW3     N/A
#CAMP SHERMAN   N/A         25  21  84  CALM    30.38R
#LA PINE 4NW    N/A         23  19  84  CALM    30.38R
#LAVA BUTTE DOT N/A         25  23  92  CALM    N/A
#SISTERS AIRPOR N/A         26  25  96  CALM    30.17S
#SISTERS ODOT   N/A         26  N/A N/A CALM    N/A
#SISTERS 3N     N/A         26  18  71  CALM    30.28S
#SUNRIVER       N/A         24  22  92  CALM    30.24R
#TUMALO 3W      N/A         32  25  75  SW2     30.22S
#WANOGA BUTTE D N/A         22  13  68  W1      N/A

$$

ORZ044-021110-
LOWER COLUMBIA BASIN...OREGON

CITY            SKY/WX      TMP DP  RH  WIND    PRES   REMARKS
HERMISTON       CLEAR       40  32  73  SW9     30.26R
#BOARDMAN SCHOOLN/A         41  34  76  W2      30.28R
#BOARDMAN 8SW   N/A         39  34  82  SW7     30.27R
#ECHO 8SW       N/A         42  31  65  W12     30.23R WCI 35
#IONE SCHOOL    N/A         38  24  57  SW3     30.25S
#IRRIGON 4NW    N/A         38  34  85  S3      N/A
#UMATILLA SCHOOLN/A         34  34  100 CALM    30.33R
#UMATILLA       N/A         36  32  85  CALM    30.19R
$$

ORZ507-021110-
NORTHERN FOOTHILLS OF THE BLUES

CITY            SKY/WX      TMP DP  RH  WIND    PRES   REMARKS
PENDLETON AIRPT PTCLDY      39  30  70  SW6     30.24R
#ADAMS 3WNW     N/A         35  31  85  CALM    30.28S
#ATHENA         N/A         37  31  79  SW1     30.29S
#CAYUSE         N/A         39  32  76  CALM    30.27S
#HELIX SCHOOL   N/A         35  30  82  SE2     30.27R
#HELIX 3N       N/A         33  30  89  S7      30.18S
#HOLDMAN 5SE    N/A         36  31  82  W5      30.23S
#HOLDMAN 6E     N/A         35  31  85  NE2     30.07S
#M-F FERNDALE   N/A         42  31  65  CALM    30.24R
#M-F GROVE ELEM N/A         41  30  65  SW6     30.23R
#M-FREEWATER 5SEN/A         42  32  67  SW6     30.24R
#PENDLETON DNTN N/A         40  25  55  NE2     30.25R
#PDT AQUATIC CTRN/A         42  25  51  CALM    30.22R
#PENDLETON 5NE  N/A         39  32  76  CALM    30.21R
#PDT SUNRIDGE   N/A         39  30  70  CALM    30.27R
#PENDLETON 7NW  N/A         39  30  70  W7      30.20R
#PILOT ROCK     N/A         39  27  62  S7      30.25R
#TUTUILLA       N/A         37  31  79  S2      30.27S
#UMAPINE 2E     N/A         43  35  73  SW6     30.22R
#WESTON SCHOOL  N/A         38  28  67  SW6     30.22R

$$

ORZ508-021110-
SOUTHERN FOOTHILLS OF THE BLUES

CITY            SKY/WX      TMP DP  RH  WIND    PRES   REMARKS
LEXINGTON       MOCLDY      36  32  85  S6      30.28S
#AJAX           N/A         36  23  59  S5      30.17S
#CONDON SCHOOL  N/A         31  28  88  CALM    30.18S
#CONDON 5W      N/A         31  26  81  W10     30.19R
#FOSSIL SCHOOL  N/A         28  25  88  CALM    30.21R
#HEPPNER EOC    N/A         36  29  75  SW2     30.25R
#HEPPNER 4NE    N/A         33  28  82  SW1     30.29S
#LEXINGTON 2SE  N/A         34  28  78  SE3     30.23R
#MIKKALO        N/A         38  29  70  W6      30.25R
#OLEX 4N        N/A         39  32  76  SW12    30.26R WCI 32
#RUGGS 5NE      N/A         32  27  82  SW6     30.36S
#RUGGS 2SW      N/A         34  28  78  W8      30.32S

$$

ORZ502-503-021110-
BLUE MOUNTAINS

CITY            SKY/WX      TMP DP  RH  WIND    PRES   REMARKS
MEACHAM         CLOUDY      31  26  81  CALM    30.18S
#BATTLE MTN DOT N/A         29  28  96  N5      N/A
#HEPPNER 15SE   N/A         30  27  88  W2      30.10S
#LADD CYN SMT   N/A         34  23  64  N5      N/A
#LADD CREEK ODOTN/A         33  26  75  CALM    N/A
#LONG CREEK HS  N/A         32  30  92  CALM    30.17S
#N POWDER DOT   N/A         N/A N/A N/A NE6     N/A
#PIKES PEAK     N/A         32  29  89  SW23G31 27.99S WCI 19
#TOLLGATE       N/A         26  25  96  SW2     30.08R
#TROY SCHOOL    N/A         33  28  82  S1      30.10R
#UKIAH          N/A         22  20  92  CALM    30.34R
#WESTON 4E      N/A         33  29  85  S3      30.22R
$$

ORZ505-021110-
JOHN DAY BASIN

CITY            SKY/WX      TMP DP  RH  WIND    PRES   REMARKS
JOHN DAY        CLOUDY      34  29  82  W7      30.22R
#JOHN DAY KJDY  N/A         35  35  100 CALM    30.41R
#DAYVILLE SCHOOLN/A         36  26  67  CALM    30.21S
#MITCHELL       N/A         30  29  96  CALM    30.37R
#MITCHELL 8NW   N/A         33  26  75  CALM    30.26R
#MONUMENT HS    N/A         31  26  81  CALM    30.25R
#MT. VERNON 5SE N/A         31  27  85  CALM    30.16S
#WINLOCK        N/A         28  23  81  CALM    30.30R
$$

ORZ506-021110-
OCHOCO AND JOHN DAY HIGHLANDS

CITY            SKY/WX      TMP DP  RH  WIND    PRES   REMARKS
#BUCK CREEK DOT N/A         28  28  100 CALM    N/A
#HORSE RIDGE DO N/A         12   8  84  CALM    N/A
#PAULINA SCHOOL N/A         54  38  55  CALM    30.16R
#PINE MTN OBS   N/A         22  20  92  NW2     N/A
#PRAIRIE CITY   N/A         26  24  92  CALM    30.43F
#SENECA         N/A         29  N/A N/A CALM    N/A
#SENECA 9NW     N/A         28  24  85  CALM    30.28S
$$

ORZ049-021110-
GRANDE RONDE VALLEY

CITY            SKY/WX      TMP DP  RH  WIND    PRES   REMARKS
LA GRANDE       CLOUDY      37  21  52  NW12    30.20R WCI 29
#COVE           N/A         34  29  82  N2      30.19S
#COVE SCHOOL    N/A         35  29  78  CALM    30.16S
#ELGIN 3N       N/A         29  22  75  CALM    30.17S
#ELGIN 1E       N/A         34  27  75  NW3     N/A
#IMBLER SCHOOL  N/A         34  26  72  N2      30.16R
#ISLAND CITY 4N N/A         35  34  96  CALM    30.38R
#LADD CYN DOT   N/A         37  26  64  CALM    N/A
#UNION 1S       N/A         35  28  75  CALM    30.19S
$$

ORZ050-021110-
WALLOWA COUNTY

CITY            SKY/WX      TMP DP  RH  WIND    PRES   REMARKS
#ENTERPRISE HS  N/A         25  20  81  CALM    30.17R
#IMNAHA 10S     N/A         33  23  66  S3      30.16S
#JOSEPH 3N      N/A         20  16  84  CALM    30.17R
#JOSEPH 3W      N/A         27  17  65  CALM    29.97S
#LOSTINE        N/A         25  21  84  CALM    30.06R
#MT HOWARD 8000 N/A         17  14  88  W6      29.98F
#PROMISE 1S     N/A         31  25  78  E3      30.34S
#SHEEP RDG 7000 N/A         20  16  84  CALM    30.34S
#WALLOWA SCHOOL N/A         30  25  81  CALM    31.22R



$$



USA.gov is the U.S. government's official web portal to all federal, state and local government web resources and services.